Terminal Aerodrome Forecast
Issued by NWS

Home | Current Version | Previous Version | Text Only | Print | Product List | Glossary On
Versions: 1 2 3 4 5 6 7 8 9 10 11 12 13 14 15 16 17 18 19 20 21 22 23 24 25 26 27 28 29 30 31 32 33 34 35 36 37 38 39 40 41 42 43 44 45 46 47
000
FTUS44 KHGX 152324
TAFLBX
TAF
KLBX 152324Z 1600/1624 10008KT P6SM SCT030 BKN250
     FM160200 VRB03KT P6SM SCT020 SCT250
     FM161200 09007KT P6SM VCSH SCT025 BKN250
     FM161600 11010KT P6SM VCTS BKN035CB BKN250
     FM162200 12006KT P6SM BKN050 BKN250=

USA.gov is the U.S. government's official web portal to all federal, state and local government web resources and services.